Regional Weather Roundup
Issued by NWS

Home | Current Version | Previous Version | Graphics & Text | Print | Product List | Glossary On
Versions: 1 2 3 4 5 6 7 8 9 10 11 12 13 14 15 16 17 18 19 20 21 22 23 24 25 26 27
000
ASUS45 KBOU 221807
RWRCO

WEATHER ROUNDUP FOR COLORADO
NATIONAL WEATHER SERVICE DENVER/BOULDER CO
1200 PM MDT FRI JUL 22 2016

NOTE: "FAIR" INDICATES FEW OR NO CLOUDS BELOW 12000 FEET WITH NO
SIGNIFICANT WEATHER AND/OR OBSTRUCTIONS TO VISIBILITY.

COZ001>005-013-030-031-221900-
...NORTHWEST COLORADO...

CITY           SKY/WX    TMP DP  RH WIND       PRES   REMARKS
CRAIG          FAIR      85  46  25 SW12      30.35F
HAYDEN         FAIR      79  46  31 NW9       30.38F
MEEKER         FAIR      81  54  39 VRB5      30.37F
MOUNT WERNER   NOT AVBL
STEAMBOAT SPGS FAIR      78  46  31 S6        30.41F
WALDEN         FAIR      73  43  33 SW15      30.50S
$$

COZ006>008-011-221900-
...WEST CENTRAL VALLEYS...

CITY           SKY/WX    TMP DP  RH WIND       PRES   REMARKS
GRAND JUNCTION FAIR      88  52  29 SE8       30.25F
MONTROSE       FAIR      83  54  36 MISG      30.35F
EAGLE          SUNNY     79  52  38 CALM      30.41F
RIFLE          FAIR      84  51  31 N5        30.31F
DELTA          FAIR      87  51  28 SE3       30.31F
NUCLA          FAIR      81  50  34 SE5       30.41S
$$

COZ017>023-064>068-221900-
...SOUTHWEST COLORADO...

CITY           SKY/WX    TMP DP  RH WIND       PRES   REMARKS
DURANGO        FAIR      82  45  27 W10       30.41F
CORTEZ         FAIR      84  49  29 VRB6      30.36F
PAGOSA SPRINGS FAIR      80  41  25 S7        30.50S
TELLURIDE      CLOUDY    67  49  52 W10       30.63S
WOLF CREEK PAS FAIR      59  41  51 SW6G18    30.85S
$$

COZ009-010-012-014-032>034-037-058>063-221900-
...CENTRAL COLORADO...

CITY           SKY/WX    TMP DP  RH WIND       PRES   REMARKS
ASPEN          FAIR      77  49  37 NE5       30.49S
BUENA VISTA    FAIR      75  42  30 CALM      30.49S
COPPER MTN     PTSUNNY   61  41  48 NW7       30.83S
BERTHOUD PASS  FAIR      54  37  54 N13G18    30.86R
COTTONWOOD PAS FAIR      70  46  43 CALM      30.64F
GUNNISON       FAIR      73  48  40 SW6       30.51F
KREMMLING      FAIR      70  52  52 CALM      30.49F
LEADVILLE      PTSUNNY   69  38  32 N15       30.64S
MONARCH PASS   PTSUNNY   59  41  51 MISG      30.92F THUNDER
SALIDA         FAIR      81  48  31 N5        30.51F
SUNLIGHT       FAIR      68  46  45 W3        30.76S
WILKERSON PASS FAIR      66  45  45 SW6       30.78F
$$

COZ069>075-221900-
...SAN LUIS VALLEY/SANGRE DE CRISTO MOUNTAINS...

CITY           SKY/WX    TMP DP  RH WIND       PRES   REMARKS
ALAMOSA        FAIR      79  46  31 VRB6      30.47F
LA VETA PASS   FAIR      73  41  31 S9        30.67F
SAGUACHE       FAIR      79  46  31 SW9       30.48F THUNDER
$$

COZ035-036-038>040-221900-
...NORTHERN COLORADO FRONT RANGE...

CITY           SKY/WX    TMP DP  RH WIND       PRES   REMARKS
DENVER INTL AP FAIR      90  45  21 CALM      30.24F
DMNS CITY PARK   N/A     91  46  21 NE9       30.23S
AURORA         MOSUNNY   88  46  23 VRB3      30.26F
FRONT RANGE AP PTSUNNY   91  48  22 W3        30.25F
ERIE MUNI ARPT FAIR      92  42  18 NE7       30.21F
BOULDER MUN AP FAIR      90  45  20 N3        30.22S
CENTENNIAL     FAIR      88  43  20 NE7       30.28F
BROOMFIELD     NOT AVBL
LONGMONT       FAIR      92  48  21 NE6       30.22F
$$

COZ041-046-047-076>085-087-088-221900-
...PIKES PEAK/PALMER DIVIDE AND SOUTHERN FOOTHILLS...

CITY           SKY/WX    TMP DP  RH WIND       PRES   REMARKS
COLO. SPRINGS  FAIR      89  45  21 VRB3      30.32F
A. F. ACADEMY  MOSUNNY   86  46  24 SE12G18   30.32F
SCHRIEVER AFB  NOT AVBL
ELLICOTT       FAIR     N/A N/A N/A VRB3      30.30F
FALCON         FAIR      85  44  24 SW8       30.38F
FORT CARSON    FAIR      91  46  21 SE13      30.26F
LIMON          FAIR      90  45  21 W7        30.24F
MONUMENT HILL  FAIR      82  46  28 SW12      30.40S
TRINIDAD       NOT AVBL
$$

COZ042>045-048>051-090-091-221900-
...NORTHEAST COLORADO...

CITY           SKY/WX    TMP DP  RH WIND       PRES   REMARKS
GREELEY ARPT   FAIR      91  52  25 E9        30.19F
AKRON          FAIR      90  56  31 VRB7      30.19F
BURLINGTON     FAIR      92  58  31 NE9       30.15F
WRAY           FAIR      95  55  26 S9        30.13
STERLING       FAIR      91  61  35 SE6       30.14S
HOLYOKE        FAIR      95  68  41 W7        30.13S
FORT MORGAN    FAIR      91  52  26 SE5       30.18F
$$

COZ086-089-092>099-221900-
...SOUTHEAST COLORADO...

CITY           SKY/WX    TMP DP  RH WIND       PRES   REMARKS
PUEBLO         FAIR      97  48  18 S9        30.18F
LA JUNTA       FAIR      96  51  21 W6        30.14F
LAMAR          FAIR      94  57  28 W3        30.09F
SPRINGFIELD      N/A     98  52  21 NE10G16   30.14F
$$




USA.gov is the U.S. government's official web portal to all federal, state and local government web resources and services.